SMOG-P

Last updated on Tue Sep 29 2020 05:51:44 GMT+0000 (Coordinated Universal Time)

1 44832U 19084J 20272.06303716 .11453400 23230-5 63587-3 0 9997 2 44832 96.9437 144.0914 0010614 231.8961 128.1384 16.41416157 46773

Satellite not in orbit